Погода в Сызрани

Хотите узнать прогноз погоды в Сызрани? Тогда Вам сюда: Погода в Сызрани

Поиск расширенной информации на нашем сайте:

Полезная информация:

Новости сайта



02.01.2020
Опубликован Долгосрочный прогноз погоды по городам России и ближнего зарубежья на январь 2020 года.
Карты: Прогноз на январь и февраль 2020 года, Сравнение прогнозируемой аномалии приземной температуры воздуха на январь 2020 года по разным моделям.




Погода в Сызрани - сегодня

Время (UTC), дата Ветер
(°,м/с) 
Видим.   Явления Облачность Т
(°С)
Тd
(°С)
f(%) Тe
(°С)
Pmin
(гПа)
dP
(гПа)
Po
(мм)
O2
(г/м3)
Тmin Tmax R s Состояние
почвы
12 24.02.21 330 (СЗ) 20000 м    3/0 верхняя 
[Ci fib]
-16 -26.4 40 -21  1035.3  -0.4  766  330           
18 24.02.21 310 (СЗ) 20000 м    8/0 верхняя 
[Ci fib]
-21 -26.9 59 -24  1036.4  766  336           
21 24.02.21 280 (З) 20000 м    3/0 верхняя 
[Ci fib]
-22.8 -26.8 70 -26  1036.7  0.2  767  339           
00 25.02.21 280 (З) 21000 м    4/0 верхняя 
[Ci fib]
-23 -26.5 73 -26  1035.9  -0.8  766  339           
03 25.02.21 250 (З) 21000 м    9/0 средняя, верхняя 
[Ac trans|Ci fib]
-23.5 -26.5 76 -24  1034.9  -1  765  339  -24.8      38  равномерный
мокрый или
старый снег
100% 
06 25.02.21 160 (Ю) 20000 м    10/0 средняя 
[Ac und]
-22 -25.7 72 -25  1032.4  -2.3  764  336           
09 25.02.21 180 (Ю) 4000 м  слаб. снег  10/10 720 м 
[Sc]
-17.6 -21.1 74 -23  1028.9  -3.2  761  329           
12 25.02.21 160 (Ю) 4000 м  снег  10/10 360 м 
[Frnb|Ns]
-17.9 -19.9 84 -23  1024.8  -4  758  328           
15 25.02.21 170 (Ю) 3000 м  снег  10/10 270 м 
[Frnb]
-16.2 -17.7 88 -20  1021.5  -3.1  756  325    -16.2     
18 25.02.21 160 (Ю) 3000 м  снег  10/10 270 м 
[Frnb|Ns]
-14.4 -15.7 90 -18  1018.4  -3  753  322           
21 25.02.21 150 (ЮВ) 4000 м  слаб. снег  10/10 360 м 
[Frnb|Ns]
-13.2 -14.3 91 -15  1016  -2.1  752  320           
00 26.02.21 110 (В) 3000 м  снег  10/10 270 м 
[Frnb|Ns]
-12.7 -13.8 91 -13  1015.4  -0.6  751  319           
03 26.02.21 100 (В) 15000 м  {снег}  10/10 570 м 
[]
-13 -14 92 -13  1015.5  0.1  751  319  -16.2    48  равномерный
сухой снег
100% 
06 26.02.21 110 (В) 20000 м  {снег}  10/0 средняя 
[Ac As]
-12 -13.2 91 -14  1015.9  0.4  752  318           
09 26.02.21 140 (ЮВ) 20000 м    10/0 средняя 
[Ac As]
-10.3 -12 87 -13  1015.5  -0.3  751  316           
12 26.02.21 150 (ЮВ) 20000 м  слаб. снег  10/10 400 м 
[Frnb|Ns]
-9.7 -11.6 86 -14  1014.1  -1.3  750  315           
15 26.02.21 150 (ЮВ) 3800 м  снег  10/10 240 м 
[Frnb|Ns]
-10.2 -11.1 93 -15  1010.9  -3.3  748  314    -9.6     
18 26.02.21 150 (ЮВ) 5{10}  9000 м  слаб. снег  10/10 300 м 
[Frnb|Ns]
-9.3 -10 95 -14  1005.8  -4.9  744  311           
21 26.02.21 150 (ЮВ) 9000 м  слаб. снег  10/10 400 м 
[Frnb|Ns]
-7.8 -8.3 96 -9  1001.1  -4.5  741  308           
00 27.02.21 150 (ЮВ) 15000 м  {снег}  10/10 480 м 
[Sc]
-7.5 -8.1 95 -9  999.9  -1.2  740  307           
03 27.02.21 тихо ()   10 км  дымка  10/10 600 м 
[Sc]
-6.4 -6.8 97 -6  998.5  -1.3  739  306  -10.2    51  равномерный
мокрый или
старый снег
100% 
06 27.02.21 230 (ЮЗ) 4000 м  дымка  10/10 630 м 
[Sc]
+0.8 +0.5 98 +1  998  -0.1  739  297           
09 27.02.21 250 (З) 20000 м    9/5 600 м средняя 
[Sc|Ac trans]
+3.6 +0.3 79 +1  997.2  -0.7  738  294           
12 27.02.21 240 (ЮЗ) 20000 м    9/5 600 м средняя 
[Sc|Ac trans]
+3.2 +0.3 81 +2  997  -0.2  738  294           
15 27.02.21 010 (С) 5{10}  18000 м    10/10 600 м 
[Sc]
-2.7 -4.5 87 -6  999.3  2.1  740  302    +3.7       
Время (UTC), дата Ветер
(°,м/с) 
Видим.   Явления Облачность Т
(°С)
Тd
(°С)
f(%) Тe
(°С)
Pmin
(гПа)
dP
(гПа)
Po
(мм)
O2
(г/м3)
Тmin Tmax R s Состояние
почвы

Для получения пояснительной информации подведите курсор к названию столбца.

ПОГОДА в Сызрани - архив

Всё, что Вы хотите узнать о погоде в Сызрани - удобно и подробно!

Выберите нужную дату (начиная с 1 января 2019* года) и нажмите кнопку "Найти".
Будут отображены архивные сводки погоды по пункту Сызрань, начиная с указанной даты.


Отображать данные в формате CSV (для использования в таблицах Excel)


Внимание! Наш архив погоды предназначен исключительно для личного некоммерческого использования в познавательных целях. Если Вам необходимы официальные справки о состоянии погоды (для производственных, юридических, коммерческих и т.п. целей), обращайтесь в органы Росгидромета.

*Примечание: данная дата относится к архиву по метеостанциям СССР (Россия, СНГ, Балтия).
Архив по метеостанциям Зарубежной Европы и Азии (кроме Китая) хранится 10 дней, по другим регионам земного шара (Китай, Африка, Америка, Австралия, Океания) - 1 день.

Сызрань - район местоположения метеостанции


Название, широта, долгота, высота метеостанции:
Сызрань 53.2°ш. 48.4°д. 103 м над ур. моря [Российская Федерация]

Дополнительная информация

В oтличие oт бoльшинства пoгoдных сайтoв мы публикуем пoдрoбную метеoинфoрмацию в детальнoм прoфессиoнальнoм фoрмате.

Характеристики температуры и влажнoсти вoздуха измеряются на высoте 2 м в тени вдали oт зданий и деревьев.
Скoрoсть ветра измеряется на высoте 10 м (на урoвне рoста челoвека скoрoсть ветра ниже в 1.5-2 раза). Если метеoстанция нахoдится в гoрoде или в лесу, тo скoрoсть ветра занижена на 2-4 м/с пo сравнению с oткрытым местoм. Скoрoсть ветра над акватoриями крупных рек и oзёр, а также на вершинах хoлмoв на 2-5 м/с выше, чем в oбычных услoвиях.
Атмoсфернoе давление в разных тoчках местнoсти мoжет значительнo oтличаться oт давления на метеoстанции, в зависимoсти oт услoвий рельефа (при пoдъёме на 10 м давление пoнижается примернo на 1 мм рт.ст.).